#timestamp,LO_Frequency,Hit,StdDev 
1571922015.9,286047005.1,Y
1571922035.7,286047002.6,P
1571922055.5,286047000.5,P
1571922075.4,286047000.8,N
1571922095.2,286047001.2,N
1571922115.0,286046999.0,N
1571922115.9,286046999.0,N
1571922135.8,286046998.5,N
1571922155.6,286046998.1,N
1571922175.4,286046998.4,N
1571922195.3,286047000.8,N
1571922215.1,286047002.1,N
1571922235.9,286047001.5,N
1571922255.7,286047001.5,N
1571922275.5,286047001.5,N
1571922295.4,286047001.5,N
1571922315.2,286047002.0,N
1571922335.0,286047000.2,N
1571922336.0,286047000.2,N
1571922355.8,286047000.8,N
1571922375.6,286046998.4,N
1571922395.5,286046999.4,N
1571922415.3,286046999.1,N
1571922435.1,286046999.6,N
1571922455.9,286046997.5,N
1571922475.7,286046995.6,Y
1571922495.6,286046996.2,P
1571922515.4,286046995.6,N
1571922535.2,286046994.9,N
1571922555.1,286046994.9,N
1571922556.0,286046994.9,N
1571922575.8,286046994.9,N
1571922595.6,286046998.0,N
1571922615.5,286046995.3,N
1571922635.3,286046995.7,N
1571922655.2,286046997.9,N
1571922675.9,286046995.1,N
1571922695.7,286046997.8,N
1571922715.6,286046995.5,N
1571922735.4,286046995.4,N
1571922755.2,286046995.0,Y
1571922775.1,286047002.8,P
1571922776.0,286047002.8,N
1571922795.8,286047001.0,N
1571922815.7,286047000.6,N
1571922835.5,286047000.1,N
1571922855.3,286047002.5,N
1571922875.2,286047002.8,N
1571922895.0,286047002.8,N
1571922895.9,286047002.8,N
1571922915.8,286047001.8,N
1571922935.6,286047001.8,N
1571922955.4,286047002.1,N
1571922975.3,286047000.6,N
1571922995.1,286047000.5,N
1571923015.8,286047000.2,N
1571923035.7,286047000.9,N
1571923055.5,286047000.7,N
1571923075.3,286046998.5,N
1571923095.2,286046998.6,N
1571923115.0,286046999.3,N
1571923115.9,286046999.3,N
1571923135.8,286046997.1,N
1571923155.6,286046995.8,N
1571923175.4,286046996.4,N
1571923195.3,286046995.7,N
1571923215.1,286046993.7,N
1571923235.8,286046993.3,N
1571923255.7,286046994.8,N
1571923275.5,286046993.3,N
1571923295.4,286046996.1,N
1571923315.2,286046995.1,N
1571923335.0,286046995.6,N
1571923335.9,286046995.6,N
1571923355.8,286046997.6,N
1571923375.6,286046997.5,N
1571923395.4,286046997.1,N
1571923415.3,286046997.6,N
1571923435.1,286046996.6,N
1571923455.9,286046999.6,N
1571923475.7,286046999.3,N
1571923495.5,286046999.3,N
1571923515.4,286046996.9,N
1571923535.2,286046996.5,N
1571923555.0,286046998.5,N
1571923555.9,286046998.5,N
1571923575.8,286046999.5,N
1571923595.6,286046997.1,N
1571923615.5,286046999.4,N
1571923635.3,286046997.0,N
1571923655.1,286046999.5,N
1571923675.9,286046997.0,N
1571923695.7,286046997.4,N
1571923715.5,286046995.3,N
1571923735.4,286046998.0,N
1571923755.2,286046996.9,N
1571923775.1,286046996.9,N
1571923776.0,286046996.9,N
1571923795.8,286046999.0,N
1571923815.6,286046999.4,N
1571923835.5,286046996.6,N
1571923855.3,286046996.6,N
1571923875.1,286046999.6,N
1571923895.9,286046996.5,N
1571923915.7,286046998.3,N
1571923935.6,286046999.0,N
1571923955.4,286046999.6,N
1571923975.2,286046997.0,N
1571923995.1,286046997.7,N
1571923996.0,286046997.7,N
1571924015.8,286046997.6,N
1571924035.6,286046997.3,N
1571924055.5,286046996.9,N
1571924075.3,286046997.3,N
1571924095.1,286046999.6,N
1571924115.9,286046997.2,N
1571924135.7,286046996.2,Y
1571924155.6,286046999.3,P
1571924175.4,286047000.6,N
1571924195.2,286047001.0,N
1571924215.1,286047000.7,N
1571924216.0,286047000.7,N
1571924235.8,286047000.9,N
1571924255.7,286047000.2,N
1571924275.5,286047000.6,N
1571924295.3,286047000.1,N
1571924315.2,286047000.0,N
1571924335.9,286046999.7,N
1571924355.7,286047001.0,N
1571924375.6,286047000.2,N
1571924395.4,286046999.9,N
1571924415.2,286047000.7,N
1571924435.1,286046999.8,N
1571924436.0,286046999.8,N
1571924455.8,286047000.4,N
1571924475.7,286047000.4,N
1571924495.5,286047000.2,N
1571924515.3,286047002.7,Y
1571924535.2,286047002.5,P
1571924555.0,286047000.5,N
1571924555.9,286047000.5,N
1571924575.8,286047000.7,N
1571924595.6,286047000.8,N
1571924615.4,286047000.0,N
1571924635.3,286046998.5,N
1571924655.1,286046998.3,N
1571924675.8,286047000.8,N
1571924695.7,286046999.0,N
1571924715.5,286046998.6,N
1571924735.3,286046999.0,N
1571924755.2,286047000.8,N
1571924775.0,286047000.7,N
1571924775.9,286047000.7,N
1571924795.8,286047001.1,N
1571924815.6,286047000.4,N
1571924835.4,286047000.5,N
1571924855.3,286047002.1,N
1571924875.1,286046999.8,N
1571924895.9,286047000.6,N
1571924915.7,286047000.5,N
1571924935.5,286046998.2,N
1571924955.4,286047000.4,N
1571924975.2,286046998.3,N
1571924995.0,286046998.2,N
1571924995.9,286046998.2,N
1571925015.8,286047000.8,N
1571925035.6,286047000.3,N
1571925055.5,286046999.9,N
1571925075.3,286047000.2,N
1571925095.1,286046999.9,N
1571925115.9,286047000.6,N
1571925165.7,286047000.5,E
1571925175.7,286047000.5,N
1571925195.5,286047001.0,P
1571925215.3,286047000.2,N
1571925235.2,286046999.9,N
1571925255.0,286047000.8,N
1571925255.9,286047000.8,N
1571925275.7,286047000.1,N
1571925295.6,286047001.8,Y
1571925315.4,286047002.5,P
1571925335.3,286047000.1,N
1571925355.1,286046999.9,N
1571925356.0,286046999.9,N
1571925375.8,286047001.2,N
1571925395.7,286047000.8,N
1571925415.5,286047000.9,N
1571925435.3,286047000.6,N
1571925455.2,286047000.5,N
1571925475.0,286047000.7,N
1571925475.9,286047000.7,N
1571925495.8,286047001.0,N
1571925515.6,286047000.2,N
1571925535.4,286047001.0,N
1571925555.3,286046998.8,N
1571925575.1,286047001.1,N
1571925595.8,286047001.1,N
